Tracking 29892 objects as of 21-Nov-2024
HD Live streaming from Space Station
objects crossing your sky now

THORAD DELTA 1 DEB

Track THORAD DELTA 1 DEB now!
10-day predictions


NORAD ID: 42606
Int'l Code: 1974-089FX
Perigee: 1,236.3 km
Apogee: 1,524.2 km
Inclination: 102.2 °
Period: 113.2 minutes
Semi major axis: 7751 km
RCS: Unknown
Launch date: November 15, 1974
Source: United States (US)
Launch site: AIR FORCE WESTERN TEST RANGE (AFWTR)

Note: This is SATELLITE DEBRIS
Your satellite tracking list
Your tracking list is empty




NASA's NSSDC Master Catalog

Two Line Element Set (TLE):
1 42606U 74089FX  24325.89618240  .00000358  00000-0  18648-2 0  9995
2 42606 102.1649 201.8811 0185689 345.5101  78.5877 12.72171902499534
Source of the keplerian elements: AFSPC